| time (UTC) | temp C | wind direction | speed KPH | gust KPH | rain 1hr cm | rain 24hr cm | rain mn cm | humidity % | barometer mb |
| 20260504011549 | 20 | 279 | 3.2 | 12.9 | 0.00 | 0.00 | 0.00 | 60 | 1017.5 |
| 20260504010054 | 20 | 20 | 0.0 | 0.0 | 0.00 | 0.00 | 0.00 | 54 | 1017.3 |
| 20260504004546 | 21 | 245 | 0.0 | 0.0 | 0.00 | 0.00 | 0.00 | 54 | 1017.2 |
| 20260504003045 | 21 | 245 | 0.0 | 3.2 | 0.00 | 0.00 | 0.00 | 54 | 1017.2 |
| 20260504001602 | 22 | 207 | 3.2 | 12.9 | 0.00 | 0.00 | 0.00 | 58 | 1017.1 |
| 20260504000045 | 22 | 150 | 3.2 | 16.1 | 0.00 | 0.00 | 0.00 | 59 | 1017.0 |
| 20260503234542 | 22 | 247 | 4.8 | 16.1 | 0.00 | 0.00 | 0.00 | 58 | 1017.1 |
| 20260503233041 | 22 | 198 | 8.0 | 16.1 | 0.00 | 0.00 | 0.00 | 55 | 1017.2 |
| 20260503231540 | 23 | 164 | 4.8 | 16.1 | 0.00 | 0.00 | 0.00 | 55 | 1017.2 |
| 20260503230037 | 23 | 224 | 6.4 | 17.7 | 0.00 | 0.00 | 0.00 | 54 | 1017.2 |
| 20260503224538 | 23 | 323 | 9.7 | 17.7 | 0.00 | 0.00 | 0.00 | 52 | 1017.2 |
| 20260503223035 | 23 | 177 | 6.4 | 20.9 | 0.00 | 0.00 | 0.00 | 49 | 1017.2 |
| 20260503221540 | 23 | 331 | 8.0 | 16.1 | 0.00 | 0.00 | 0.00 | 49 | 1017.2 |
| 20260503220037 | 23 | 136 | 6.4 | 16.1 | 0.00 | 0.00 | 0.00 | 46 | 1017.2 |
| 20260503214531 | 24 | 225 | 6.4 | 19.3 | 0.00 | 0.00 | 0.00 | 45 | 1017.3 |
| 20260503213032 | 24 | 181 | 3.2 | 14.5 | 0.00 | 0.00 | 0.00 | 44 | 1017.4 |
| 20260503211625 | 24 | 248 | 4.8 | 14.5 | 0.00 | 0.00 | 0.00 | 41 | 1017.8 |
| 20260503210024 | 23 | 213 | 3.2 | 12.9 | 0.00 | 0.00 | 0.00 | 41 | 1017.9 |
| 20260503204525 | 23 | 235 | 3.2 | 17.7 | 0.00 | 0.00 | 0.00 | 41 | 1018.1 |
| 20260503203021 | 24 | 249 | 4.8 | 14.5 | 0.00 | 0.00 | 0.00 | 39 | 1018.3 |
| 20260503201528 | 24 | 215 | 3.2 | 14.5 | 0.00 | 0.00 | 0.00 | 39 | 1018.5 |
| 20260503200024 | 26 | 244 | 0.0 | 8.0 | 0.00 | 0.00 | 0.00 | 34 | 1018.7 |
| 20260503194520 | 25 | 214 | 0.0 | 1.6 | 0.00 | 0.00 | 0.00 | 34 | 1018.9 |
| 20260503193013 | 23 | 314 | 0.0 | 1.6 | 0.00 | 0.00 | 0.00 | 34 | 1019.2 |
| 20260503191515 | 23 | 24 | 1.6 | 19.3 | 0.00 | 0.00 | 0.00 | 31 | 1019.4 |
| 20260503190019 | 24 | 32 | 0.0 | 11.3 | 0.00 | 0.00 | 0.00 | 33 | 1019.7 |
| 20260503184520 | 23 | 129 | 0.0 | 11.3 | 0.00 | 0.00 | 0.00 | 33 | 1019.9 |
| 20260503183022 | 24 | 44 | 0.0 | 6.4 | 0.00 | 0.00 | 0.00 | 32 | 1020.2 |
| 20260503181521 | 23 | 109 | 0.0 | 9.7 | 0.00 | 0.00 | 0.00 | 33 | 1020.3 |
| 20260503180005 | 22 | 53 | 3.2 | 12.9 | 0.00 | 0.00 | 0.00 | 36 | 1020.4 |
| 20260503174504 | 22 | 53 | 6.4 | 14.5 | 0.00 | 0.00 | 0.00 | 37 | 1020.5 |
| 20260503173009 | 22 | 330 | 3.2 | 11.3 | 0.00 | 0.00 | 0.00 | 36 | 1020.5 |
| 20260503171600 | 22 | 23 | 1.6 | 11.3 | 0.00 | 0.00 | 0.00 | 37 | 1020.7 |
| 20260503170104 | 22 | 90 | 1.6 | 14.5 | 0.00 | 0.00 | 0.00 | 37 | 1020.9 |
| 20260503081527 | 14 | 63 | 0.0 | 0.0 | 0.00 | 0.15 | 0.00 | 64 | 1019.1 |
| 20260503071525 | 15 | 39 | 6.4 | 14.5 | 0.00 | 0.48 | 0.00 | 65 | 1018.6 |
| 20260503054506 | 16 | 52 | 0.0 | 11.3 | 0.00 | 1.24 | 0.00 | 63 | 1018.4 |
| 20260503053006 | 16 | 70 | 1.6 | 11.3 | 0.00 | 1.24 | 0.00 | 62 | 1018.3 |
| 20260503051503 | 16 | 43 | 0.0 | 8.0 | 0.00 | 1.24 | 0.00 | 63 | 1018.2 |
| 20260503050001 | 16 | 335 | 1.6 | 6.4 | 0.00 | 1.24 | 0.00 | 63 | 1018.2 |
| 20260503044625 | 16 | 11 | 1.6 | 9.7 | 0.00 | 1.27 | 1.24 | 62 | 1018.1 |
| 20260503043053 | 16 | 6 | 1.6 | 9.7 | 0.00 | 1.27 | 1.24 | 62 | 1018.0 |
| 20260503041553 | 16 | 35 | 0.0 | 9.7 | 0.00 | 1.27 | 1.24 | 62 | 1017.7 |
| 20260503040043 | 16 | 318 | 1.6 | 8.0 | 0.00 | 1.27 | 1.24 | 61 | 1017.7 |
| 20260503034539 | 16 | 342 | 3.2 | 9.7 | 0.00 | 1.52 | 1.24 | 60 | 1017.6 |
| 20260503033038 | 17 | 314 | 3.2 | 11.3 | 0.00 | 1.52 | 1.24 | 59 | 1017.4 |
| 20260503031529 | 16 | 29 | 0.0 | 9.7 | 0.00 | 1.52 | 1.24 | 60 | 1017.4 |
| 20260503030028 | 17 | 19 | 1.6 | 11.3 | 0.00 | 1.52 | 1.24 | 60 | 1017.2 |
| 20260503024520 | 17 | 321 | 1.6 | 11.3 | 0.00 | 1.98 | 1.24 | 58 | 1017.2 |
| 20260503023016 | 17 | 331 | 4.8 | 14.5 | 0.00 | 1.98 | 1.24 | 58 | 1017.0 |
| 20260503021517 | 18 | 31 | 3.2 | 16.1 | 0.00 | 1.98 | 1.24 | 56 | 1016.9 |
| 20260503020007 | 18 | 58 | 6.4 | 20.9 | 0.00 | 1.98 | 1.24 | 57 | 1016.6 |
| 20260503014504 | 18 | 79 | 4.8 | 16.1 | 0.00 | 2.82 | 1.24 | 56 | 1016.4 |
| 20260503013116 | 18 | 357 | 6.4 | 14.5 | 0.00 | 2.82 | 1.24 | 56 | 1016.2 |